User: anonymous   Login
Location: Nitra
(0.0000°N, 18.0833°E)
Time: 15:23:46
(UTC+02:00)
Language:

N. Korean satellite - Orbit

View from above orbital plane
View from above orbital plane
View from above satellite
View from above satellite

Ground track
Ground track

The orbit data is extracted from the following two-line orbital elements,

1 39026U 12072A   21135.91791219  .00002091  00000-0  72973-4 0  9997
2 39026  97.2439 129.5803 0037039 138.1066 222.3019 15.30067892468054
Epoch (UTC): 15 May 2021 22:01:47
Eccentricity: 0.0037039
inclination: 97.2439°
perigee height: 450 km
apogee height: 501 km
right ascension of ascending node: 129.5803°
argument of perigee: 138.1066°
revolutions per day: 15.30067892
mean anomaly at epoch: 222.3019°
orbit number at epoch: 46805

The dashed part of the orbit path shows where the satellite is in the earth's shadow,  

DLR